Forside
METAR-TAF:

METAR-TAF

Lufthavne :

Rochelle Municipal Airport (Koritz Field)

Rochelle, Illinois, USA

Breddekreds: 41-53-35N, længdekreds: 089-04-42W, højde: 238 m

Aktuelle vejr

Denne rapport blev lavet for 17 minutter siden, kl. 08:15 UTC
Vind stille
Temperatur 18°C
Fugtighed 94%
Tryk 1019 hPa
Sigt: 16.1 km
Overskyet i en højde af 7000 ft

METAR: KRPJ 310815Z AUTO 00000KT 10SM OVC070 18/17 A3008 RMK AO2 T01750172

Tid: 03:32 (08:32 UTC)


TAF: fraværende

Vejrobservationer og prognoser fra mere end 4000 lufthavne (METAR og TAF).

De gule og røde prikker repræsenterer de meteorologiske stationer.

Flyt musen over at se navnet på stationen.

Så klik over at se vejr observationer og prognoser.

At skifte det kort: Klik på de grønne knapper med et sort kors for at zoome ind; på den grønne knap med en bindestreg for at zoome ud; eller på de grønne pile for tilstødende kort.


METAR-TAF: